Regional Weather Roundup
Issued by NWS

Home | Current Version | Previous Version | Text Only | Print | Product List | Glossary Off
Versions: 1 2 3 4 5 6 7 8 9 10 11 12 13 14 15 16 17 18 19 20 21 22 23 24 25 26 27 28 29 30 31 32 33 34 35 36 37 38 39 40 41 42 43 44 45 46 47 48 49 50

000
ASUS43 KOAX 051210
RWRNE

WEATHER ROUNDUP FOR NEBRASKA
NATIONAL WEATHER SERVICE OMAHA NE
700 AM CDT TUE MAY 05 2015

NOTES: SATELLITE DATA IS BEING USED TO AUGMENT CLOUD COVER ABOVE
       12000 FEET.
       "FAIR" INDICATES FEW OR NO CLOUDS BELOW 12,000 FEET WITH NO
       SIGNIFICANT WEATHER AND/OR OBSTRUCTIONS TO VISIBILITY.

  * THESE STATIONS DO NOT REPORT WEATHER SUCH AS RAIN...SNOW OR FOG.

NEZ001>004-019>022-054>056-051300-
NEBRASKA PANHANDLE

CITY           SKY/WX    TMP DP  RH WIND       PRES   REMARKS
SCOTTSBLUFF    CLOUDY    47  45  93 SE10      30.02F
6HR MIN TEMP:  47; 6HR MAX TEMP:  49;

ALLIANCE       CLOUDY    48  45  89 SE8       30.02S
6HR MIN TEMP:  47; 6HR MAX TEMP:  50;

CHADRON        CLEAR     40  36  86 N6        30.00F
6HR MIN TEMP:  39; 6HR MAX TEMP:  46;

KIMBALL        FOG       44  44  99 S8        30.01F VSB 1/2
SIDNEY         CLOUDY    45  44  97 S5        30.03F FOG
6HR MIN TEMP:  45; 6HR MAX TEMP:  46;

$$

NEZ057>060-069>072-079>082-051300-
SOUTHWEST NEBRASKA

CITY           SKY/WX    TMP DP  RH WIND       PRES   REMARKS
NORTH PLATTE   FOG       52  51  97 CALM      30.03S VSB 1/2
6HR MIN TEMP:  51; 6HR MAX TEMP:  52;

IMPERIAL       FOG       50  49  96 N5        30.02F VSB 1/2
6HR MIN TEMP:  49; 6HR MAX TEMP:  50; 6HR PCP: TRACE;

LEXINGTON      FOG       55  54  97 NE3       30.02F VSB 1/4
MCCOOK         FOG       54  53  97 E3        30.02R VSB 1/4
6HR MIN TEMP:  53; 6HR MAX TEMP:  54;

OGALLALA       CLOUDY    49  49  99 CALM      30.03F FOG
$$

NEZ005>010-023>029-035>040-094-051300-
NORTH CENTRAL NEBRASKA

CITY           SKY/WX    TMP DP  RH WIND       PRES   REMARKS
VALENTINE      CLOUDY    50  42  74 E8        30.04F
6HR MIN TEMP:  43; 6HR MAX TEMP:  52;

AINSWORTH      CLOUDY    53  50  89 E9        30.05F FOG
BROKEN BOW     FOG       54  53  97 NE5       30.03S VSB 3/4
6HR MIN TEMP:  53; 6HR MAX TEMP:  54; 6HR PCP: TRACE;

O`NEILL        CLOUDY    53  52  95 E6        30.07S FOG
ORD            CLOUDY    54  53  97 NE5       30.03F FOG
6HR MIN TEMP:  54; 6HR MAX TEMP:  55;

THEDFORD       CLOUDY    53  51  94 E3        30.05S FOG
$$

NEZ041-046>049-061>064-073>077-083>087-051300-
SOUTH CENTRAL NEBRASKA

CITY           SKY/WX    TMP DP  RH WIND       PRES   REMARKS
GRAND ISLAND   FOG       55  55 100 E7        30.05R VSB 1/4
6HR MIN TEMP:  54; 6HR MAX TEMP:  55;

AURORA         FOG       57  57 100 E6        30.05R VSB 1/4
HASTINGS       CLOUDY    58  57  97 S5        30.03R FOG
6HR MIN TEMP:  55; 6HR MAX TEMP:  58; 6HR PCP:  0.02;

HEBRON         MOCLDY    59  57  91 SE7       30.03S
HOLDREGE       FOG       56  55  97 SE3       30.03R VSB 1/2
KEARNEY *      CLOUDY    55  54  94 E6        30.03R VSB<1/4
YORK           FOG       57  57 100 E5        30.05R VSB<1/4
$$

NEZ011>018-030>034-042>045-051300-
NORTHEAST NEBRASKA

CITY           SKY/WX    TMP DP  RH WIND       PRES   REMARKS
NORFOLK        CLOUDY    55  54  96 E6        30.05F FOG
6HR MIN TEMP:  55; 6HR MAX TEMP:  56; 6HR PCP:  0.14;

ALBION         FOG       54  53  94 NE8       30.04F VSB 1/2
BLAIR          RAIN      57  56  95 E3        30.06F VSB 3/4
COLUMBUS *     CLOUDY    55  50  82 E8        30.06S VSB 1
FREMONT        CLOUDY    58  56  95 E5        30.06S FOG
TEKAMAH        LGT RAIN  58  56  93 CALM      30.07R FOG
6HR MIN TEMP:  57; 6HR MAX TEMP:  58; 6HR PCP:  0.06;

WAYNE          CLOUDY    54  53  95 NE7       30.08S FOG
$$

NEZ050>053-065>068-078-088>093-051300-
SOUTHEAST NEBRASKA

CITY           SKY/WX    TMP DP  RH WIND       PRES   REMARKS
LINCOLN        CLOUDY    60  59  96 E5        30.06R FOG
6HR MIN TEMP:  59; 6HR MAX TEMP:  62;

OMAHA EPPLEY   CLOUDY    60  58  92 E3        30.06S FOG
6HR MIN TEMP:  57; 6HR MAX TEMP:  61;

BEATRICE       MOCLDY    59  58  97 SE6       30.05R
FALLS CITY     PTCLDY    58  57  97 SE3       30.07R
6HR MIN TEMP:  57; 6HR MAX TEMP:  62; 6HR PCP:  0.03;

NEBRASKA CITY  CLOUDY    59  59 100 CALM      30.08R
PLATTSMOUTH    CLOUDY    58  57  94 E5        30.07S FOG
$$

NEZ044-045-051>053-067-051300-
OMAHA AREA

CITY           SKY/WX    TMP DP  RH WIND       PRES   REMARKS
OMAHA EPPLEY   CLOUDY    60  58  92 E3        30.06S FOG
6HR MIN TEMP:  57; 6HR MAX TEMP:  61;

BLAIR          RAIN      57  56  95 E3        30.06F VSB 3/4
FREMONT        CLOUDY    58  56  95 E5        30.06S FOG
MILLARD        CLOUDY    61  59  94 CALM      30.06S FOG
OFFUTT AFB     CLOUDY    60  59  96 E6        30.06F
PLATTSMOUTH    CLOUDY    58  57  94 E5        30.07S FOG
$$



USA.gov is the U.S. government's official web portal to all federal, state and local government web resources and services.